一网星座-0357星 (ONEWEB-0357 )

导读 | 豆包AI

ONEWEB-0357是一颗由英国发射的卫星,于2021年9月14日升空,隶属于OneWeb星座系统。该星座旨在为全球提供高速低延迟宽带互联网服务,尤其覆盖偏远地区与海上、空中移动场景。作为低轨通信卫星,它工作在近地轨道,凭借低轨道优势缩短信号传输距离,助力OneWeb构建全球无缝连接网络。

Basic Information
目录编号:
49219
目录名称:
ONEWEB-0357
国际标识:
2021-083AK
轨道中心:
EARTH
卫星名称:
一网星座-0357星
卫星全名:
一网星座-0357星 (ONEWEB-0357 )
卫星状态:
在轨 (已飞行1642 天)
发射日期:
2021-09-14 UTC
国别 :
英国 (GB)
星等 :
--
Orbit Information
数据来源 国际轨道数据 AOE轨道数据
星历时间 2026-03-14T05:41:12+0800
15小时前
查看轨道信息
2026-03-10T22:00:00+0800
3天前
查看轨道信息
半长轴 7559.915km 7559.911km
偏心率 0.0001804 0.0001928
轨道倾角 87.917° 87.918°
近地点辐角 88.676° 86.303°
升交点赤经 293.458° 294.119°
平近点角 271.458° 335.705°
近地点 1180.414km 1180.316km
远地点 1183.142km 1183.232km
周期 109.027分钟 109.027分钟
每日圈数 13.207707 13.207719
Detailed Information
平衡模式:
三轴稳定
覆盖范围:
全球
运营商:
一网卫星公司
运营商所在国:
英国
制造商(研发单位):
一网卫星公司
制造商所在国:
英国
使用方式:
暂无
Satellite Introduction
OneWeb卫星网络由648颗重约125公斤的微型卫星组成,运行在1200公里的轨道上。 每颗卫星都能够提供至少每秒8千兆位的吞吐量,以使用其高吞吐量的Ku频段有效载荷为家庭和移动平台提供互联网接入。该卫星仍在工作。
2D Orbit Map
3D Orbit Map
Orbit Altitude Analysis Chart
Orbit Inclination Analysis Chart
Orbit Comprehensive Analysis Chart
View Comprehensive Chart